Погода в Викторополе

Россия / Белгородская область     50°04′51″N   38°28′43″E
темп.,
°C
ветер,
м/с
пор.,
м/с
влажн.,
%
обл.,
%
осадки,
мм/ч
давл.,
гПа
погр.,
м
17 апреля, сб
сб1700:00+10ююв1160100 0.0 101818
03:00+8вюв2383100 0.6 1018174
06:00+7с0192100 0.9 101829
09:00+10зюз446947 2.1 1018846
12:00+12юз55455 0.3 10191831
15:00+12зюз764869 0.3 10191661
18:00+10зюз565688 0.0 10191115
21:00+9юз376196 0.0 1020472
18 апреля, вс
вс1800:00+8ююз3665100 0.0 1020316
03:00+7ююз367511 0.0 1019156
06:00+5юз248170 0.0 1020101
09:00+10юз365860 0.0 10191096
12:00+12ююз455094 0.3 10191527
15:00+12ю454889 0.4 10181508
18:00+12ю4550100 0.0 1018889
21:00+9ююв3661100 0.0 101884
19 апреля, пн
пн1900:00+8ююв346679 0.0 101752
03:00+9ююв3562100 0.0 1017108
06:00+8юв356599 0.0 101693
09:00+12ююв3454100 0.0 1016553
12:00+14ююз3445100 0.1 10151982
15:00+14ю1347100 0.1 10151405
18:00+14ю2352100 0.0 1015348
21:00+11св226299 0.1 101520
20 апреля, вт
вт2000:00+10в3568100 0.0 101466
03:00+9в4882100 0.0 1013183
06:00+9в51186100 0.1 1012408
09:00+10в81383100 0.1 1010725
12:00+10всв101793100 3.9 1005851
15:00+10вюв102095100 11.8 10001188
18:00+13юв11189399 3.8 9971032
21:00+11ю8168736 6.6 999687
21 апреля, ср
ср2100:00+10ю91488100 0.6 1000842
03:00+9ю81391100 2.1 1001794
06:00+8зюз81190100 0.6 1004950
09:00+7ююз71289100 0.8 1009899
12:00+12юз81166100 0.3 10121457
15:00+10юз6975100 0.6 10151027
18:00+10зюз4769100 0.1 1017924
21:00+8зюз2380100 0.1 101964